Location: Newark
(45.5000°N, 11.4167°E)
Time: 18:46:36
(UTC+00:00)

Explorer 11/Cluster Stage 4 - Pass Details

Date: 21 August 2019
Orbit: 467 x 1260 km, 28.8° (Epoch: 15 September)

Event Time Altitude Azimuth Distance (km) Brightness Sun altitude
Rises 09:58:25 0° 213° (SSW) 4,179 10.5 52.6°
Reaches altitude 10° 10:02:53 10° 192° (SSW) 3,227 10.3 53.0°
Maximum altitude 10:07:04 15° 161° (SSE) 2,833 10.4 53.4°
Drops below altitude 10° 10:11:09 10° 130° (SE) 3,132 10.4 53.8°
Sets 10:15:21 0° 109° (ESE) 3,986 10.6 54.1°
